Freeport, IL

4:27 AM CDT on April 27, 2017 (GMT -0500)
Albertus

Weather History for KFEP - October, 2011

Change the Weather History Date:

Saturday, October 8, 2011

  Actual Average Record
Temperature  
Mean Temperature 66 °F -  
Max Temperature 78 °F 64 °F 83 °F (1993)
Min Temperature 55 °F 39 °F 24 °F (1987)
Cooling Degree Days 2    
Growing Degree Days 16 (Base 50)    
Moisture  
Dew Point 51 °F    
Average Humidity 60    
Maximum Humidity 88    
Minimum Humidity 30    
Precipitation  
Precipitation 0.00 in - - ()
Sea Level Pressure  
Sea Level Pressure 30.26 in    
Wind  
Wind Speed 10 mph (SSE)    
Max Wind Speed 21 mph    
Max Gust Speed 28 mph    
Visibility 10 miles    
Events      
Averages and records for this station are not official NWS values.
T = Trace of Precipitation, MM = Missing Value Source: NWS Daily Summary

Daily Weather History Graph

Daily Weather History Graph

Search for Another Location

Airport or City:

Trip Planner

Search our weather history database for the weather conditions in past years. The results will help you decide how hot, cold, wet, or windy it might be!

Date:

Astronomy

Oct. 08, 2011 Rise Set
Actual Time 7:02 AM CDT 6:28 PM CDT
Civil Twilight 6:34 AM CDT 6:56 PM CDT
Nautical Twilight 6:02 AM CDT 7:28 PM CDT
Astronomical Twilight 5:29 AM CDT 8:01 PM CDT
Moon 4:41 PM CDT (10/8) 3:47 AM CDT (10/8)
Length of Visible Light 12h 21m
Length of Day
11h 25m
Waxing Gibbous, 90% of the Moon is Illuminated
Oct 8
Waxing Gibbous
Oct 11
Full
Oct 19
Last Quarter
Oct 26
New
Nov 2
First Quarter

Hourly Weather History & Observations

Time (CDT) Temp. Dew Point Humidity Pressure Visibility Wind Dir Wind Speed Gust Speed Precip Events Conditions
12:15 AM 62.6 °F 50.0 °F 63% 30.21 in 10.0 mi SSE 9.2 mph - N/A   Clear
12:35 AM 62.6 °F 51.8 °F 68% 30.22 in 10.0 mi South 9.2 mph - N/A   Clear
12:55 AM 60.8 °F 51.8 °F 72% 30.22 in 10.0 mi SSE 9.2 mph - N/A   Clear
1:15 AM 60.8 °F 51.8 °F 72% 30.22 in 10.0 mi South 9.2 mph - N/A   Clear
1:35 AM 60.8 °F 51.8 °F 72% 30.23 in 10.0 mi South 9.2 mph - N/A   Clear
1:55 AM 60.8 °F 51.8 °F 72% 30.23 in 10.0 mi SSE 8.1 mph - N/A   Clear
2:15 AM 59.0 °F 51.8 °F 77% 30.24 in 10.0 mi SSE 9.2 mph - N/A   Clear
2:35 AM 59.0 °F 51.8 °F 77% 30.24 in 10.0 mi SSE 6.9 mph - N/A   Clear
2:55 AM 59.0 °F 51.8 °F 77% 30.24 in 10.0 mi SSE 6.9 mph - N/A   Clear
3:15 AM 57.2 °F 51.8 °F 82% 30.24 in 10.0 mi South 8.1 mph - N/A   Clear
3:35 AM 59.0 °F 51.8 °F 77% 30.24 in 10.0 mi SSE 8.1 mph - N/A   Clear
3:55 AM 59.0 °F 51.8 °F 77% 30.25 in 10.0 mi South 8.1 mph - N/A   Clear
4:15 AM 59.0 °F 51.8 °F 77% 30.25 in 10.0 mi SSE 8.1 mph - N/A   Clear
4:35 AM 59.0 °F 51.8 °F 77% 30.25 in 10.0 mi SSE 9.2 mph - N/A   Clear
4:55 AM 57.2 °F 51.8 °F 82% 30.26 in 10.0 mi SSE 8.1 mph - N/A   Clear
5:15 AM 55.4 °F 51.8 °F 88% 30.26 in 10.0 mi South 8.1 mph - N/A   Clear
5:35 AM 55.4 °F 51.8 °F 88% 30.27 in 10.0 mi SSE 5.8 mph - N/A   Clear
5:55 AM 55.4 °F 51.8 °F 88% 30.27 in 10.0 mi SSE 4.6 mph - N/A   Clear
6:15 AM 55.4 °F 51.8 °F 88% 30.28 in 10.0 mi South 6.9 mph - N/A   Clear
6:35 AM 55.4 °F 51.8 °F 88% 30.28 in 10.0 mi SSE 6.9 mph - N/A   Clear
6:55 AM 55.4 °F 51.8 °F 88% 30.28 in 10.0 mi SSE 9.2 mph - N/A   Clear
7:15 AM 55.4 °F 51.8 °F 88% 30.29 in 10.0 mi SSE 9.2 mph - N/A   Clear
7:35 AM 55.4 °F 51.8 °F 88% 30.29 in 10.0 mi SSE 9.2 mph - N/A   Clear
7:55 AM 59.0 °F 53.6 °F 82% 30.29 in 10.0 mi SSE 9.2 mph - N/A   Clear
8:15 AM 59.0 °F 53.6 °F 82% 30.30 in 10.0 mi SSE 9.2 mph - N/A   Clear
8:35 AM 60.8 °F 53.6 °F 77% 30.30 in 10.0 mi SSE 11.5 mph - N/A   Clear
8:55 AM 62.6 °F 53.6 °F 72% 30.30 in 10.0 mi SSE 11.5 mph - N/A   Clear
9:15 AM 64.4 °F 53.6 °F 68% 30.30 in 10.0 mi SSE 15.0 mph - N/A   Clear
9:55 AM 71.6 °F 55.4 °F 57% 30.30 in 10.0 mi South 13.8 mph 20.7 mph N/A   Clear
10:15 AM 71.6 °F 55.4 °F 57% 30.31 in 10.0 mi South 15.0 mph 23.0 mph N/A   Clear
10:35 AM 71.6 °F 53.6 °F 53% 30.30 in 10.0 mi South 13.8 mph - N/A   Clear
10:55 AM 71.6 °F 53.6 °F 53% 30.30 in 10.0 mi South 20.7 mph 27.6 mph N/A   Clear
11:15 AM 73.4 °F 53.6 °F 50% 30.30 in 10.0 mi SSW 16.1 mph 25.3 mph N/A   Clear
11:35 AM 77.0 °F 55.4 °F 47% 30.30 in 10.0 mi South 15.0 mph 19.6 mph N/A   Clear
11:55 AM 77.0 °F 53.6 °F 44% 30.29 in 10.0 mi South 16.1 mph 24.2 mph N/A   Clear
12:15 PM 77.0 °F 51.8 °F 41% 30.28 in 10.0 mi South 17.3 mph 21.9 mph N/A   Clear
12:35 PM 77.0 °F 50.0 °F 39% 30.28 in 10.0 mi South 16.1 mph 20.7 mph N/A   Clear
12:55 PM 77.0 °F 48.2 °F 36% 30.27 in 10.0 mi South 16.1 mph 21.9 mph N/A   Clear
1:15 PM 78.8 °F 48.2 °F 34% 30.27 in 10.0 mi SSE 12.7 mph 19.6 mph N/A   Clear
1:35 PM 78.8 °F 48.2 °F 34% 30.26 in 10.0 mi South 12.7 mph 23.0 mph N/A   Clear
1:55 PM 78.8 °F 46.4 °F 32% 30.25 in 10.0 mi South 13.8 mph - N/A   Clear
2:15 PM 78.8 °F 46.4 °F 32% 30.25 in 10.0 mi South 15.0 mph 19.6 mph N/A   Clear
2:35 PM 78.8 °F 46.4 °F 32% 30.25 in 10.0 mi SSE 11.5 mph 19.6 mph N/A   Clear
2:55 PM 78.8 °F 44.6 °F 30% 30.25 in 10.0 mi South 12.7 mph 21.9 mph N/A   Clear
3:15 PM 78.8 °F 46.4 °F 32% 30.24 in 10.0 mi South 10.4 mph 19.6 mph N/A   Clear
3:35 PM 78.8 °F 44.6 °F 30% 30.24 in 10.0 mi South 12.7 mph - N/A   Clear
3:55 PM 78.8 °F 46.4 °F 32% 30.24 in 10.0 mi South 10.4 mph 17.3 mph N/A   Clear
4:15 PM 78.8 °F 48.2 °F 34% 30.24 in 10.0 mi SSE 11.5 mph 17.3 mph N/A   Clear
4:35 PM 78.8 °F 50.0 °F 36% 30.24 in 10.0 mi SSE 12.7 mph 16.1 mph N/A   Clear
4:55 PM 77.0 °F 46.4 °F 34% 30.24 in 10.0 mi SSE 12.7 mph 17.3 mph N/A   Clear
5:15 PM 77.0 °F 48.2 °F 36% 30.24 in 10.0 mi SSE 9.2 mph - N/A   Clear
5:35 PM 77.0 °F 50.0 °F 39% 30.24 in 10.0 mi SE 8.1 mph - N/A   Clear
5:55 PM 77.0 °F 51.8 °F 41% 30.24 in 10.0 mi SE 8.1 mph - N/A   Clear
6:15 PM 71.6 °F 50.0 °F 46% 30.25 in 10.0 mi ESE 5.8 mph - N/A   Clear
6:35 PM 71.6 °F 53.6 °F 53% 30.25 in 10.0 mi SE 5.8 mph - N/A   Clear
6:55 PM 69.8 °F 51.8 °F 53% 30.25 in 10.0 mi ESE 5.8 mph - N/A   Clear
7:15 PM 64.4 °F 50.0 °F 59% 30.25 in 10.0 mi SE 6.9 mph - N/A   Clear
7:35 PM 64.4 °F 50.0 °F 59% 30.25 in 10.0 mi SE 6.9 mph - N/A   Clear
7:55 PM 64.4 °F 50.0 °F 59% 30.26 in 10.0 mi SSE 4.6 mph - N/A   Clear
8:15 PM 62.6 °F 50.0 °F 63% 30.26 in 10.0 mi SSE 3.5 mph - N/A   Clear
8:35 PM 60.8 °F 50.0 °F 68% 30.26 in 10.0 mi SE 5.8 mph - N/A   Clear
8:55 PM 59.0 °F 50.0 °F 72% 30.26 in 10.0 mi SE 3.5 mph - N/A   Clear
9:15 PM 59.0 °F 50.0 °F 72% 30.26 in 10.0 mi SE 5.8 mph - N/A   Clear
9:35 PM 59.0 °F 48.2 °F 67% 30.26 in 10.0 mi SSE 5.8 mph - N/A   Clear
9:55 PM 59.0 °F 48.2 °F 67% 30.27 in 10.0 mi SSE 5.8 mph - N/A   Clear
10:15 PM 59.0 °F 50.0 °F 72% 30.27 in 10.0 mi SSE 8.1 mph - N/A   Clear
10:35 PM 59.0 °F 46.4 °F 63% 30.27 in 10.0 mi SSE 8.1 mph - N/A   Clear
10:55 PM 59.0 °F 46.4 °F 63% 30.28 in 10.0 mi SSE 9.2 mph - N/A   Clear
11:15 PM 59.0 °F 46.4 °F 63% 30.28 in 10.0 mi South 9.2 mph - N/A   Clear
11:35 PM 59.0 °F 46.4 °F 63% 30.28 in 10.0 mi SSE 9.2 mph - N/A   Clear
11:55 PM 59.0 °F 46.4 °F 63% 30.29 in 10.0 mi South 8.1 mph - N/A   Clear